一网星座-0038星 (ONEWEB-0038 )

导读

ONEWEB-0038是英国OneWeb星座的低轨通信卫星,于2020年2月6日发射入轨。该卫星运行于1200公里近极轨道,属于OneWeb全球宽带互联网星座组网卫星,采用Ku频段透明转发设计,单星可提供超5Gbit/s通信容量,能为偏远区域提供高速互联网接入服务,助力实现全球无缝网络覆盖,是OneWeb构建低轨卫星通信系统的重要组成部分。

基本信息
目录编号:
45145
目录名称:
ONEWEB-0038
国际标识:
2020-008Q
轨道中心:
EARTH
卫星名称:
一网星座-0038星
卫星全名:
一网星座-0038星 (ONEWEB-0038 )
卫星状态:
在轨 (已飞行2363 天)
发射日期:
2020-02-06 UTC
国别 :
英国 (GB)
星等 :
--
轨道信息
数据来源 国际轨道数据 AOE轨道数据
星历时间 2026-07-27T07:53:57+0800
22小时前
查看轨道信息
2026-07-21T16:00:00+0800
6天前
查看轨道信息
半长轴 7595.824km 7595.815km
偏心率 0.0002735 0.000234
轨道倾角 87.891° 87.892°
近地点辐角 130.194° 144.435°
升交点赤经 13.156° 14.284°
平近点角 229.942° 137.893°
近地点 1215.609km 1215.9km
远地点 1219.765km 1219.456km
周期 109.805分钟 109.805分钟
每日圈数 13.11416 13.114184
详细信息
平衡模式:
三轴稳定
覆盖范围:
全球
运营商:
一网卫星公司
运营商所在国:
英国
制造商(研发单位):
一网卫星公司
制造商所在国:
英国
使用方式:
暂无
卫星简介
OneWeb卫星网络由648颗重约125公斤的微型卫星组成,运行在1200公里的轨道上。 每颗卫星都能够提供至少每秒8千兆位的吞吐量,以使用其高吞吐量的Ku频段有效载荷为家庭和移动平台提供互联网接入。该卫星仍在工作。
2D轨道图
3D轨道图
轨道高度分析图
轨道倾角分析图
轨道综合分析图
查看轨道综合分析图